Location: Lafig�re
(44.4503°N, 4.0357°E)
Time: 05:06:42
(UTC+00:00)

Vanguard 3 - Visible Passes

Search period start: 28 January 2021 00:00
Search period end: 07 February 2021 00:00
Orbit: 508 x 3261 km, 33.3° (Epoch: 27 January)

Date Brightness Start Highest point End Pass type
(mag) Time Alt. Az. Time Alt. Az. Time Alt. Az.
28 Jan 8.9 03:44:46 36° SSE 03:44:46 36° SSE 03:53:21 10° ESE visible
28 Jan 9.6 05:49:19 12° WSW 05:56:21 37° S 06:08:36 10° SE visible
29 Jan 10.1 02:34:52 16° ESE 02:34:52 16° ESE 02:36:57 10° ESE visible
29 Jan 8.8 04:39:26 31° SW 04:41:49 38° S 04:52:08 10° ESE visible
30 Jan 9.2 03:29:33 30° SE 03:29:33 30° SE 03:35:47 10° ESE visible
30 Jan 9.4 05:34:07 15° WSW 05:39:40 32° S 05:50:20 10° SE visible
31 Jan 10.4 02:19:41 10° ESE 02:19:41 10° ESE 02:19:45 10° ESE visible
31 Jan 8.8 04:24:14 32° SSW 04:25:18 33° S 04:34:16 10° SE visible
31 Jan 9.9 06:31:03 10° WSW 06:37:41 24° SSW 06:47:22 10° SSE visible
01 Feb 9.5 03:14:23 22° SE 03:14:23 22° SE 03:18:18 10° ESE visible
01 Feb 9.3 05:18:56 17° SW 05:23:05 27° SSW 05:32:03 10° SE visible
02 Feb 9.0 04:09:06 28° S 04:09:06 28° S 04:16:26 10° SE visible
02 Feb 9.8 06:15:39 10° WSW 06:21:02 18° SSW 06:28:23 10° SSE visible
03 Feb 9.9 02:59:16 15° SE 02:59:16 15° SE 03:00:55 10° ESE visible
03 Feb 9.2 05:03:50 17° SW 05:06:36 22° SSW 05:13:43 10° SSE visible
04 Feb 9.3 03:54:01 22° SSE 03:54:01 22° SSE 03:58:39 10° SE visible
04 Feb 9.9 06:00:52 10° SW 06:04:30 13° SSW 06:08:56 10° S visible
05 Feb 9.4 04:48:48 16° SSW 04:50:11 16° SSW 04:55:14 10° SSE visible
06 Feb 9.7 03:39:02 14° SSE 03:39:02 14° SSE 03:40:50 10° SSE visible
